Wind_Speed
20 20 19 19 19 19 18 18 18 18 18 18 18 18 17 17 17 17 16 15 14 12 13 14 14 15 15 14 12 11 12 12 11 9 9 9 11 12 13 13 14 17 18 14 12 12 15 18 19 19 19 19 20 20 18 18 18 17 16 15 13 12 10 8 8 8 7 5 5 7 8 9 9 8 7 7 8 9 7 8 8 7 6 5 4 3 3 6
22 22 22 22 22 21 21 20 19 19 19 19 19 19 18 18 17 18 18 17 15 14 13 13 14 15 16 16 14 13 13 13 12 10 11 12 12 13 16 16 15 17 18 16 15 15 16 19 21 21 20 20 21 21 20 20 19 19 18 17 16 14 11 10 10 9 8 6 5 7 8 8 8 7 7 6 7 10 10 9 8 8 7 6 5 4 2 4
25 25 25 25 25 24 24 23 22 21 21 21 20 20 19 19 18 18 18 18 17 16 15 14 14 15 16 17 16 15 15 14 12 10 12 15 13 13 15 16 16 17 18 18 19 20 20 21 22 22 22 22 21 21 21 21 20 20 19 18 17 15 12 11 11 10 9 8 8 7 6 7 8 8 6 6 6 7 9 7 7 8 7 6 5 5 3 3
26 26 27 27 27 27 26 26 25 25 24 23 23 22 21 21 20 19 19 19 19 18 17 15 14 15 15 17 17 17 17 16 13 11 14 18 15 13 13 15 17 18 18 19 20 21 21 20 20 22 23 22 21 22 21 21 21 21 19 19 19 16 13 12 12 11 10 8 8 8 7 8 7 7 8 7 6 6 6 6 6 7 5 5 6 6 5 4
27 27 27 27 28 28 28 27 27 27 27 26 25 25 24 23 22 21 20 20 20 19 19 18 16 16 16 16 17 18 19 18 15 12 15 18 16 14 14 15 18 19 19 20 19 20 19 17 18 20 20 19 18 20 21 21 22 22 20 20 20 17 14 13 12 12 11 9 9 9 9 8 6 7 9 7 7 7 5 4 5 6 5 4 5 7 7 6
27 27 27 28 28 28 28 28 28 28 28 28 27 27 26 26 25 24 23 22 21 21 20 19 18 18 17 17 17 18 20 20 16 14 16 18 17 15 15 14 16 18 19 20 20 18 16 16 18 17 18 18 16 19 22 22 22 22 21 20 20 18 16 15 13 12 11 11 11 9 9 8 8 9 9 7 7 6 6 3 3 6 5 5 5 7 8 7
27 28 28 28 28 28 28 28 28 28 28 29 28 28 28 28 28 27 26 24 24 22 21 21 20 20 19 18 18 19 20 20 18 17 18 19 18 16 16 15 15 16 18 21 21 18 16 15 16 17 19 18 18 21 23 22 22 22 21 20 20 19 18 16 15 12 12 13 12 9 8 7 8 8 6 5 4 4 6 4 3 6 5 5 5 5 6 7
26 27 27 28 28 28 28 29 29 29 29 29 29 29 29 29 29 29 28 28 27 25 24 22 21 21 21 20 20 20 20 19 19 20 21 20 19 18 17 17 16 16 18 21 22 21 19 16 16 19 19 18 20 25 25 23 23 21 21 21 20 21 19 17 16 14 14 14 13 10 7 5 6 6 4 3 2 3 4 4 4 6 5 4 4 5 6 6
25 25 26 27 27 27 28 28 29 29 29 29 29 29 30 30 30 30 30 30 29 29 27 25 23 22 22 22 22 22 21 20 20 21 22 21 20 19 19 19 18 18 18 20 22 23 20 17 18 19 20 21 23 27 27 25 22 21 23 23 23 23 22 20 18 17 15 15 14 10 5 4 5 5 5 4 4 5 3 4 5 5 4 5 5 5 6 7
23 24 25 25 26 26 27 28 28 29 29 29 30 30 30 30 31 31 31 31 31 31 30 28 26 24 23 23 24 25 23 21 21 21 22 22 21 20 20 19 19 20 19 19 20 20 20 20 22 23 25 27 26 28 28 25 24 26 27 26 26 26 25 23 21 20 16 15 15 10 5 5 5 4 5 6 5 5 4 3 4 5 4 6 6 6 6 6
23 23 24 24 25 25 26 26 27 28 28 29 29 30 30 31 31 31 32 32 32 32 31 31 29 28 26 24 26 28 25 22 22 21 21 22 23 22 22 20 20 21 21 20 19 20 24 26 27 28 27 28 28 29 26 26 29 30 30 29 29 29 28 26 24 21 18 17 17 13 8 7 6 5 6 7 5 4 5 4 5 6 6 7 7 7 6 5
25 25 25 25 25 26 26 26 27 27 27 28 28 29 30 30 31 32 32 33 33 33 33 32 31 30 29 27 29 30 26 24 23 22 21 23 24 25 24 23 22 22 22 22 21 22 26 29 30 27 25 27 29 29 27 30 33 33 33 32 31 31 29 27 25 24 21 21 20 16 11 8 8 8 8 8 6 4 6 6 6 7 7 7 8 8 6 5
27 27 27 27 27 27 27 27 28 28 28 28 28 28 29 29 30 31 32 33 33 34 34 34 33 32 30 31 34 32 28 26 24 24 24 24 26 27 27 26 25 24 23 24 24 24 26 29 29 26 27 28 28 28 29 33 36 37 36 34 32 32 29 27 27 26 24 23 20 17 13 10 11 10 9 9 8 7 8 8 8 9 9 8 8 8 7 6
29 29 29 29 29 29 29 29 29 29 29 29 30 29 29 29 29 30 31 32 33 34 34 35 34 33 31 33 37 35 31 29 28 28 28 28 28 27 28 28 27 25 25 26 26 26 26 28 29 30 31 28 27 29 31 34 37 37 37 36 35 32 29 28 29 28 26 24 20 17 15 12 12 10 10 12 10 9 10 10 10 9 10 8 7 8 7 6
31 31 31 31 31 30 31 31 31 31 31 31 31 30 30 30 30 30 31 32 33 33 34 35 35 34 32 33 38 38 34 33 32 31 30 30 30 28 29 30 30 29 28 29 28 27 28 28 28 29 29 28 31 32 31 34 35 36 36 35 35 32 29 30 30 29 27 25 22 18 15 13 12 10 12 14 12 11 11 10 10 10 11 9 7 7 7 6
33 34 34 34 33 33 33 33 33 33 33 34 34 32 31 31 31 31 33 34 34 34 33 34 35 34 32 32 37 40 38 36 35 33 32 32 32 31 31 31 31 30 30 31 30 30 30 28 26 27 30 33 34 32 31 34 34 35 33 31 32 32 31 32 31 29 28 27 25 20 17 15 13 12 14 16 13 12 13 11 11 10 10 10 9 7 6 6
36 36 36 36 36 35 35 35 36 36 36 37 37 36 34 34 33 33 36 37 36 35 34 34 33 33 33 33 36 40 41 39 37 36 34 34 35 34 32 30 30 31 32 34 33 32 31 28 27 28 31 33 34 33 33 32 30 31 29 26 28 30 31 33 31 29 30 29 26 22 18 17 16 15 16 16 15 14 15 13 12 11 9 10 10 7 5 5
39 39 39 39 39 38 38 37 37 37 37 38 38 38 37 37 36 36 39 41 39 38 36 35 34 33 34 35 36 39 42 41 38 37 36 36 37 37 34 32 33 34 35 36 35 33 31 29 29 30 31 32 32 32 30 25 24 26 25 23 25 27 29 31 30 30 30 30 27 22 18 18 18 17 17 17 16 15 15 15 14 12 10 10 10 8 6 6
41 42 41 42 42 41 40 40 39 38 39 39 39 39 39 39 38 38 42 44 42 41 39 37 36 35 35 36 38 39 39 40 40 38 38 39 40 40 38 37 37 36 37 36 34 34 33 32 33 33 30 25 23 23 22 22 24 25 24 23 24 24 25 26 28 29 31 31 29 22 18 18 19 18 17 17 16 15 15 16 14 11 10 10 10 9 8 7
43 44 44 44 44 44 43 43 43 42 42 42 42 42 41 41 40 40 45 47 46 44 43 41 39 39 38 36 38 38 37 38 40 39 38 40 43 43 42 43 41 39 37 34 33 35 35 36 36 29 21 17 18 20 21 24 27 27 27 25 24 24 21 21 24 26 29 32 29 22 20 20 20 19 18 18 17 15 14 13 12 11 11 10 11 10 9 8
44 44 44 45 46 46 46 46 46 46 46 46 46 46 45 44 43 42 43 47 49 48 46 45 44 42 41 38 38 39 38 38 39 39 38 40 44 45 45 46 44 41 36 33 34 37 39 40 32 22 19 21 22 22 23 25 28 29 29 26 25 24 20 20 23 25 29 31 26 22 22 22 21 20 19 19 17 15 13 12 12 13 13 11 11 10 9 8
45 45 45 46 47 47 48 49 49 49 49 50 50 50 49 48 47 46 44 44 48 51 50 50 48 46 45 42 39 39 40 39 39 41 41 41 45 47 47 47 46 42 37 38 38 39 42 37 25 20 24 27 26 26 26 26 28 31 31 29 26 22 20 23 25 26 29 29 23 22 23 23 22 21 21 21 18 16 16 15 15 16 15 12 11 10 8 7
47 47 47 48 48 49 49 50 50 51 51 51 51 51 51 50 50 51 49 48 48 49 50 51 52 51 49 46 43 42 42 41 41 44 44 43 44 46 49 49 46 43 42 43 42 41 39 28 21 27 30 29 29 29 27 27 30 32 33 32 26 22 23 25 24 27 31 29 24 22 22 23 23 25 25 24 21 20 21 20 19 19 16 14 13 12 10 8
49 50 50 49 49 50 50 50 51 51 51 51 50 50 50 50 50 50 50 50 49 49 49 50 52 53 52 51 47 45 45 44 44 48 47 45 45 46 49 49 48 46 45 45 43 43 36 24 24 33 33 31 31 30 30 30 31 32 34 32 25 23 23 23 24 29 32 30 28 26 26 27 29 29 28 25 23 23 25 25 22 17 15 15 14 12 11 9
51 51 51 50 48 48 48 48 47 48 48 48 47 46 45 45 45 46 47 46 46 48 48 48 50 52 53 53 52 49 49 47 48 51 51 49 47 47 48 49 50 49 47 46 47 45 37 28 30 34 33 34 34 33 32 31 29 31 32 28 24 24 23 23 28 32 33 32 31 30 31 32 32 31 28 26 26 26 27 26 21 15 15 16 13 11 10 10
51 50 50 49 46 44 43 42 40 41 41 41 40 40 39 39 38 40 42 40 40 43 45 45 47 49 51 53 53 53 53 52 52 52 52 52 51 48 48 50 51 51 48 48 49 48 40 34 36 37 36 37 37 36 33 30 30 29 25 23 24 26 26 27 32 34 35 33 31 33 34 33 32 31 29 28 27 26 27 26 21 18 17 17 15 12 11 10
48 46 44 44 41 39 36 33 32 32 31 31 33 33 34 33 31 33 36 36 35 36 39 42 42 43 48 51 53 54 55 55 54 53 53 53 53 51 50 50 52 52 50 51 53 51 44 40 41 40 39 40 41 38 33 31 31 23 18 23 29 30 29 30 34 36 33 31 33 36 36 35 34 30 27 27 27 26 27 27 23 21 20 19 18 15 12 11
43 39 37 36 35 33 31 28 27 26 25 26 27 29 30 29 27 28 30 33 33 31 33 37 37 37 42 46 49 52 55 56 53 53 55 54 54 54 53 51 53 53 52 54 56 51 44 43 43 41 40 41 40 35 30 32 30 21 20 28 31 31 30 33 38 38 34 35 39 40 37 37 36 30 26 26 27 28 28 26 24 23 20 20 20 18 15 11
35 32 30 30 30 30 29 27 25 24 24 25 25 26 27 27 27 26 28 31 32 30 30 32 34 35 37 41 45 49 52 55 53 52 54 56 56 56 54 53 53 53 53 54 55 49 45 45 45 44 43 40 37 33 32 35 30 23 26 31 32 32 34 39 44 42 39 43 44 41 39 39 36 32 32 32 31 30 28 25 24 23 21 21 20 19 17 15
27 26 26 27 29 30 30 29 28 27 26 25 25 25 26 27 28 29 30 31 31 31 30 30 33 35 35 37 42 46 48 51 52 51 53 56 57 56 56 56 56 56 54 54 55 51 48 49 49 48 45 40 38 36 36 35 30 28 31 33 35 37 39 45 47 43 45 50 46 41 41 41 38 35 36 35 31 28 25 23 21 21 22 23 22 21 20 19
24 25 26 29 30 32 33 34 34 32 30 28 27 27 28 29 30 31 33 33 34 34 32 32 33 35 35 34 37 43 46 47 47 48 51 53 56 58 58 58 59 59 57 56 57 54 52 54 53 51 48 44 43 41 39 37 33 35 38 37 39 41 44 49 50 48 52 54 45 39 40 43 43 37 34 33 29 26 24 22 20 20 22 23 22 22 21 20
25 27 29 32 34 35 36 37 37 36 35 33 32 32 32 34 34 35 36 36 38 39 36 35 35 35 36 34 33 38 43 45 44 45 49 52 56 60 61 61 61 62 61 59 59 56 57 58 56 54 52 49 47 44 43 41 38 39 42 42 42 44 48 54 55 54 57 55 44 40 42 46 44 35 32 32 29 27 26 24 21 18 19 21 21 21 21 20
29 31 33 35 37 38 38 37 37 36 35 34 33 33 33 35 35 35 35 35 38 39 38 38 37 36 36 34 33 34 38 43 43 43 48 52 57 62 66 66 65 65 64 61 61 59 59 60 59 58 56 52 50 48 46 46 44 43 44 45 46 47 52 57 58 57 58 54 45 41 44 48 42 32 30 30 26 27 28 26 21 18 18 20 21 22 22 22
32 34 36 38 39 39 38 36 35 33 32 32 31 31 32 33 34 34 35 35 36 36 37 38 38 38 37 36 35 33 35 40 41 42 46 52 58 63 67 69 67 68 66 63 63 62 61 61 60 59 58 54 52 50 46 44 44 43 42 43 44 45 49 53 55 56 56 53 45 42 45 47 38 26 25 26 24 26 28 26 24 21 21 21 22 23 24 24
34 35 38 39 38 36 34 32 30 29 29 29 30 31 32 33 34 35 36 37 36 35 35 36 37 38 38 38 37 35 34 38 40 42 46 51 58 63 68 70 68 68 67 64 64 65 65 62 57 56 57 55 53 51 47 45 45 44 43 44 45 44 44 48 51 52 53 51 46 45 47 44 34 23 22 26 26 26 27 27 27 26 24 24 25 26 28 28
37 36 37 37 35 32 30 29 28 27 27 27 28 29 31 32 33 34 35 37 38 38 36 36 37 38 38 38 38 36 35 36 38 41 47 52 58 63 68 71 69 68 68 66 65 67 68 64 58 57 59 56 53 51 49 49 47 46 47 48 44 40 40 45 48 49 52 52 46 45 46 42 35 27 25 28 27 24 26 26 26 27 26 25 25 27 29 30
38 35 34 34 32 31 30 29 28 27 27 28 29 31 33 34 35 35 36 37 39 39 39 39 39 39 39 39 39 38 36 35 36 39 47 54 58 62 67 71 71 69 70 68 67 68 70 67 63 61 61 58 53 51 50 50 48 47 48 47 42 39 40 42 45 49 52 52 46 44 46 43 36 29 26 28 27 24 25 26 25 26 26 22 19 22 27 29
37 34 33 33 32 31 30 28 28 29 30 32 34 37 39 40 41 41 41 42 41 41 40 41 41 41 40 40 40 39 36 34 34 36 45 55 60 62 65 70 71 70 71 70 68 70 71 67 64 63 62 60 57 52 50 50 49 46 45 44 42 42 43 44 46 50 53 54 49 45 46 45 37 29 26 27 27 25 25 26 25 25 24 19 16 18 23 26
37 35 34 33 32 31 29 28 30 32 33 35 38 41 42 44 45 44 46 48 47 45 42 41 41 41 42 41 40 39 37 34 32 34 42 55 61 62 63 67 70 71 71 71 69 71 72 69 66 65 64 63 61 56 54 53 51 48 46 45 43 42 42 44 45 46 50 53 50 45 45 43 36 28 25 24 25 26 27 27 25 24 23 19 17 18 19 23
38 36 34 33 32 30 28 29 31 33 35 37 39 42 43 45 46 48 49 49 46 45 42 40 40 40 41 41 40 40 37 35 32 33 41 54 61 63 63 65 69 71 71 71 71 71 73 71 67 66 66 64 62 60 57 54 51 51 51 50 47 46 44 43 44 43 45 49 47 44 43 39 33 27 24 22 23 25 28 28 27 26 24 21 20 20 18 21
38 36 33 32 31 29 28 29 31 33 35 37 39 40 42 44 46 47 45 41 39 38 37 37 37 38 39 39 39 39 37 35 34 32 39 53 62 63 63 64 67 71 71 71 72 72 74 74 69 67 68 65 63 62 57 53 52 52 53 52 49 49 47 44 46 45 43 46 46 44 41 36 31 26 22 21 21 22 26 28 27 28 27 24 22 22 20 21
39 36 32 30 30 28 28 29 31 32 34 37 39 40 41 43 43 38 30 27 28 27 27 30 34 36 36 36 37 37 35 35 35 32 36 50 63 65 63 63 65 69 71 71 72 74 75 75 70 67 68 67 63 62 59 56 54 53 54 53 50 49 49 46 47 46 43 45 45 42 39 31 25 24 24 24 22 21 24 28 29 29 31 27 23 22 21 22
38 36 33 31 29 28 27 29 30 32 34 38 40 40 40 41 36 27 21 22 25 24 25 27 31 33 34 34 34 34 33 33 34 33 33 43 61 68 64 62 64 67 71 71 72 75 76 75 71 67 67 65 60 60 59 57 56 55 55 55 52 51 49 47 46 43 42 43 41 39 37 25 20 24 27 27 25 23 24 28 29 30 32 29 25 23 23 22
37 36 34 32 29 27 27 29 31 32 36 39 40 39 39 37 30 21 20 26 29 29 30 27 27 30 31 31 31 31 31 31 32 34 33 36 51 66 66 63 63 65 69 71 72 74 76 74 71 67 64 60 56 56 57 58 58 57 56 55 54 52 48 47 45 42 42 41 37 37 33 21 21 26 26 25 25 25 26 28 29 30 31 30 27 27 26 24
36 35 34 33 31 29 29 31 32 33 37 39 38 37 36 33 25 19 24 32 33 32 31 28 26 29 29 28 28 28 28 30 30 33 33 31 39 56 66 64 62 64 67 70 72 74 75 75 72 68 64 60 58 58 59 60 61 60 57 55 54 52 49 47 46 44 44 41 37 37 30 21 22 25 22 23 25 25 28 29 28 28 29 28 28 29 29 28
35 34 34 33 31 31 32 34 34 35 38 38 36 36 33 28 24 19 23 29 29 28 28 27 27 28 28 27 26 26 26 28 29 31 34 32 33 44 60 64 61 63 66 69 72 74 75 76 73 69 67 64 62 62 63 63 63 62 59 56 54 53 51 48 47 47 45 40 37 36 28 23 24 25 23 23 25 25 26 26 26 28 28 26 26 28 31 31
35 33 33 33 31 31 33 35 35 36 38 37 36 35 31 25 21 19 19 22 24 24 24 23 23 24 25 25 25 25 25 26 28 30 33 34 33 36 51 62 61 61 64 66 71 74 74 75 73 69 68 66 64 64 64 64 63 62 60 58 55 53 52 51 50 48 43 40 39 34 27 25 27 26 23 22 23 24 25 25 26 27 25 24 24 26 31 33
34 32 32 33 31 31 32 34 36 37 38 37 35 33 28 23 20 19 18 19 20 20 18 18 19 21 23 23 24 25 25 25 27 29 32 35 36 35 43 59 62 59 62 63 68 74 74 73 73 69 67 67 65 63 63 62 61 61 60 59 56 55 54 53 51 48 42 40 38 31 26 27 27 25 23 22 22 23 24 25 24 21 20 22 24 26 28 30
33 30 29 31 32 32 33 34 36 38 37 36 35 31 25 21 18 17 17 16 16 16 15 16 17 19 22 23 24 25 25 25 26 27 30 33 35 34 38 55 61 59 59 61 65 73 74 72 72 69 66 66 64 63 62 61 60 60 61 61 59 57 55 53 49 45 42 39 35 29 26 27 27 25 25 26 24 24 24 24 22 19 19 22 24 24 24 25
32 30 29 31 33 33 33 35 36 38 36 34 33 29 23 19 16 14 13 12 13 14 15 16 17 19 21 24 25 25 26 27 26 26 28 31 32 32 35 50 60 59 56 58 63 70 73 72 71 68 64 63 63 63 62 60 58 59 61 62 62 58 55 51 46 42 40 38 33 30 28 29 29 28 30 30 27 26 26 25 23 21 21 22 22 22 23 23
33 31 30 32 33 34 34 35 36 36 35 33 32 28 22 18 16 14 12 10 11 13 15 17 18 20 21 23 25 26 26 27 26 25 26 28 29 30 33 46 59 57 51 55 63 67 70 72 71 66 63 61 62 63 60 58 57 59 61 62 61 58 52 48 44 42 40 37 33 33 32 32 33 32 33 33 30 29 29 28 27 25 22 21 20 20 22 23
34 33 32 32 34 35 35 36 35 34 33 32 31 27 21 17 15 13 11 10 11 12 14 16 17 18 20 22 23 24 25 25 26 26 27 27 27 29 31 45 59 54 44 50 63 67 67 70 70 65 62 61 63 62 57 56 58 59 61 61 59 56 50 46 44 43 41 38 35 35 34 35 37 35 34 35 33 31 30 31 31 28 24 22 19 18 20 21
Wind_Direction
293 292 292 292 291 290 290 289 288 288 287 286 286 286 286 286 287 288 288 287 285 281 275 271 269 270 271 266 259 254 250 251 254 257 257 244 233 226 219 215 212 222 227 220 218 216 212 214 217 217 214 212 211 210 211 215 218 218 219 213 197 186 186 185 182 187 192 183 147 122 114 117 121 130 131 138 147 135 161 192 162 141 144 153 146 151 198 169
289 289 289 289 289 288 288 287 287 287 286 285 285 284 283 282 282 283 285 285 283 281 277 272 268 266 267 267 263 258 254 250 246 249 258 250 236 228 223 217 207 213 223 218 217 218 212 212 214 215 216 215 214 212 211 214 218 220 222 219 207 191 189 192 190 195 193 180 160 144 132 126 127 130 129 133 134 137 166 185 157 147 146 139 133 135 187 182
284 284 284 284 284 284 284 284 284 283 283 283 283 283 282 281 280 279 279 280 281 279 276 273 270 266 265 266 265 261 257 252 246 242 250 250 239 230 228 228 219 212 218 217 214 215 212 210 209 210 213 216 213 210 212 214 218 222 223 226 221 206 200 197 192 196 193 176 162 162 157 150 145 135 136 148 149 157 177 181 152 146 143 138 136 136 163 178
281 281 280 280 280 280 280 280 280 279 279 279 279 280 280 280 279 277 276 276 276 276 275 273 270 267 265 264 264 262 259 255 249 238 243 247 242 235 229 230 228 219 219 220 216 218 219 215 210 210 213 215 212 207 210 214 217 221 222 227 230 222 214 203 193 194 197 185 168 171 173 162 155 147 151 163 174 177 186 187 152 141 142 140 147 149 157 165
280 280 279 278 278 278 278 277 277 276 276 276 276 275 276 276 276 275 275 273 273 272 271 271 269 267 265 263 262 261 259 256 249 238 242 247 244 240 234 231 231 226 224 226 222 221 226 223 219 219 219 219 212 203 208 215 217 219 220 225 231 229 224 215 200 193 200 199 183 183 181 168 166 165 162 170 189 178 168 181 142 128 143 148 158 160 157 159
282 281 280 279 279 278 277 276 275 275 274 273 273 272 272 272 272 272 272 271 271 270 268 267 266 265 264 262 261 260 257 255 250 242 243 248 246 240 237 237 235 230 227 230 230 225 223 221 223 226 226 226 214 203 208 215 218 219 220 224 230 231 229 224 209 196 203 206 191 184 182 170 167 171 165 173 195 175 142 142 127 123 144 157 167 172 164 161
285 284 283 282 281 280 278 277 276 275 273 272 271 271 270 269 269 268 268 268 267 267 266 264 263 262 262 261 259 258 257 254 250 245 244 247 247 240 235 236 238 234 227 228 230 229 224 218 219 223 225 226 214 208 212 214 216 219 219 223 228 232 233 231 223 208 203 205 192 183 189 170 165 170 163 173 184 142 120 125 141 139 151 161 165 174 167 163
287 286 285 284 282 281 280 279 277 276 274 273 271 270 269 268 267 266 266 265 264 264 263 262 261 260 259 259 258 256 256 254 250 247 244 245 247 243 235 231 233 235 230 227 225 225 222 211 210 216 219 220 214 213 215 214 215 218 220 223 226 231 233 232 231 218 200 202 195 187 198 181 174 168 145 175 150 105 120 136 153 151 154 159 156 165 165 164
289 288 286 285 283 282 281 280 278 277 275 274 272 271 269 267 266 265 264 263 262 261 260 259 258 257 256 256 256 255 254 253 251 249 246 244 246 245 240 233 229 232 233 231 227 225 222 213 208 210 212 215 214 214 215 214 214 215 218 220 221 225 228 226 227 220 203 203 201 190 195 195 190 160 148 184 148 121 146 161 170 172 168 157 152 161 167 167
295 293 291 289 287 284 282 281 279 277 276 274 273 271 269 268 266 264 263 262 261 260 259 257 255 254 254 253 254 254 253 252 250 250 250 247 246 245 243 238 232 231 232 233 230 226 223 218 211 206 206 208 210 213 213 210 211 214 215 216 218 220 223 222 223 221 210 209 205 192 193 204 204 177 178 197 162 144 168 192 199 195 180 156 149 154 162 167
301 299 297 295 293 291 288 286 283 280 277 275 273 271 270 268 267 265 263 262 260 259 258 256 254 251 250 250 251 251 249 248 248 248 249 248 245 243 241 239 235 230 228 230 229 222 218 218 216 211 207 207 208 209 206 205 211 215 216 216 218 220 222 223 223 223 216 210 204 197 204 207 209 207 207 207 191 176 169 185 213 193 172 153 144 146 154 162
303 301 300 298 297 295 293 291 288 285 282 279 275 273 270 268 267 265 264 262 261 259 257 255 254 251 249 247 247 249 247 244 246 248 248 247 245 242 240 237 236 232 225 224 224 221 218 219 221 216 212 212 211 207 200 202 210 215 216 216 218 222 225 226 226 225 220 213 207 205 207 202 208 209 208 209 208 206 176 183 208 183 161 146 138 139 148 160
302 301 299 298 297 295 294 293 291 288 286 284 280 277 273 270 268 266 264 262 260 259 258 256 253 251 248 246 246 247 245 242 242 243 243 242 241 241 240 237 235 235 229 224 222 222 221 222 222 218 217 216 214 210 202 203 209 213 216 216 217 221 223 227 231 230 227 222 215 210 203 196 208 206 202 215 216 208 186 186 203 179 157 146 135 134 142 158
303 301 299 298 296 295 294 292 291 289 287 285 283 280 278 275 272 269 266 263 261 258 257 256 254 251 247 245 248 246 242 240 237 237 238 238 238 238 239 238 235 234 233 229 223 222 224 224 222 218 218 217 215 215 209 207 210 213 216 215 217 220 220 224 231 234 234 232 224 212 201 197 209 203 199 215 214 203 188 188 210 188 157 148 139 134 136 147
303 302 300 298 297 296 294 293 292 290 288 286 284 282 280 278 276 274 271 267 262 259 256 255 253 251 247 245 248 247 240 237 236 235 235 238 240 238 237 238 234 230 231 231 227 224 224 224 223 221 222 218 217 218 213 212 214 215 218 216 216 219 219 222 228 232 235 236 231 217 202 201 213 205 201 213 210 201 194 195 220 199 160 153 155 147 136 134
304 302 301 298 297 296 295 294 292 291 290 288 285 283 282 280 278 276 274 270 265 260 257 255 254 252 249 245 247 249 243 237 235 236 234 236 239 239 237 238 238 234 232 234 231 228 226 223 223 222 222 220 220 221 219 218 217 218 222 219 217 218 217 221 226 230 235 237 236 228 211 207 216 209 204 215 212 204 203 207 224 207 169 160 164 159 143 135
304 302 300 298 297 296 294 293 292 291 289 288 287 285 284 282 280 278 275 271 267 263 259 256 254 253 252 247 245 248 247 241 236 235 234 235 237 239 239 238 240 239 235 234 233 232 230 225 223 222 222 222 222 222 222 224 223 222 225 222 221 220 217 220 224 228 234 238 239 235 221 215 217 208 202 212 214 209 209 213 221 215 189 167 162 166 161 144
302 301 299 297 296 295 293 292 290 289 287 286 285 285 284 283 282 281 277 273 269 266 262 258 255 253 252 249 245 245 247 246 240 235 233 235 236 237 238 236 236 237 235 234 234 234 233 228 226 225 224 224 224 225 227 232 233 230 229 224 225 224 219 221 224 228 234 238 239 234 223 217 215 205 198 207 214 213 212 212 217 220 208 176 160 164 169 158
300 299 298 296 295 293 292 290 288 287 285 283 283 282 282 281 281 279 276 274 272 268 265 261 257 253 251 250 249 247 247 249 245 237 232 233 235 235 234 233 234 236 236 235 235 235 234 231 229 227 227 230 235 237 236 235 234 232 229 224 224 226 223 221 222 227 233 236 235 230 218 217 216 203 196 205 215 216 214 217 219 221 213 184 160 158 164 163
298 297 296 295 293 292 291 289 287 286 284 283 282 281 279 279 278 277 274 273 272 269 267 264 260 256 252 249 249 248 246 247 247 242 234 231 234 235 233 233 232 233 236 237 236 236 235 234 232 230 233 239 241 237 231 229 230 231 229 222 219 221 219 215 218 225 229 229 227 222 210 212 215 205 199 205 212 213 217 230 229 219 214 193 164 159 163 165
297 295 294 293 292 290 289 288 287 285 284 283 281 280 279 277 275 274 273 273 272 270 267 264 261 258 254 249 247 248 246 244 245 245 238 231 232 233 234 235 233 232 233 236 236 235 234 233 231 228 227 229 228 225 221 222 225 228 228 223 217 214 205 205 214 218 221 221 218 215 208 207 210 207 203 203 202 203 212 232 231 216 215 202 175 167 166 166
299 297 295 294 292 291 289 288 287 285 284 283 281 280 278 276 273 270 267 267 269 269 268 265 262 258 255 250 246 245 245 243 243 243 240 233 230 231 233 235 236 232 230 232 233 234 235 232 228 225 225 225 224 222 217 215 219 223 225 223 217 208 198 202 212 215 215 213 209 213 215 211 208 207 205 201 197 200 203 213 219 215 215 207 187 176 169 167
301 299 298 297 296 294 292 290 289 287 286 284 283 281 279 277 274 271 267 264 264 264 263 263 262 260 257 253 246 243 243 242 241 241 239 235 231 229 231 233 234 231 228 230 232 233 236 234 228 227 226 224 224 224 220 215 215 218 221 220 212 204 202 204 212 216 215 208 201 208 217 215 211 208 205 200 199 202 199 202 212 215 216 211 200 186 171 170
305 303 302 302 301 299 296 295 293 291 288 286 284 283 280 278 274 272 268 266 263 260 257 256 257 257 256 254 249 243 241 239 238 238 237 235 231 228 229 230 232 231 228 229 232 233 232 226 226 229 228 226 226 224 222 219 216 216 219 216 207 205 207 205 210 217 218 211 202 201 207 208 210 210 203 197 199 201 197 199 206 216 223 221 212 191 170 169
308 307 305 304 304 302 300 298 296 294 291 289 286 284 281 278 275 272 269 267 265 261 257 254 252 251 251 252 249 245 242 239 238 237 236 235 232 228 227 227 229 230 228 228 229 231 228 220 223 227 225 225 226 225 224 223 219 218 219 213 203 204 206 204 209 215 217 214 206 205 209 209 209 208 198 194 198 197 196 200 204 217 235 236 226 203 182 174
309 308 306 305 304 304 303 301 299 296 294 291 287 285 282 279 276 272 269 267 266 263 259 255 253 249 247 246 246 244 242 241 240 238 236 235 234 231 227 225 226 228 228 228 228 228 224 219 222 224 222 222 224 223 222 223 221 219 218 210 202 203 203 204 209 214 217 214 208 211 217 216 215 208 197 194 196 194 196 202 205 214 230 240 240 224 205 190
309 308 306 305 305 305 305 304 302 298 295 291 288 286 283 279 276 273 270 269 267 265 262 258 255 252 247 244 242 241 241 240 241 239 236 235 235 233 229 225 224 225 225 226 227 225 219 217 219 221 220 221 222 222 220 223 222 214 206 206 204 203 201 202 209 216 218 216 214 217 220 222 221 210 197 196 196 196 199 200 204 209 218 232 237 233 224 203
309 308 308 308 309 308 309 309 306 301 297 293 290 288 284 279 276 275 274 273 269 266 264 261 258 253 249 245 240 238 239 238 238 237 236 234 232 232 230 226 224 223 223 224 226 225 219 218 220 222 222 222 223 222 220 225 221 203 197 206 205 200 196 199 208 214 215 216 219 220 222 225 223 208 196 198 199 200 200 197 200 206 213 224 229 234 238 222
310 310 311 314 315 314 315 313 308 304 299 295 292 288 283 278 275 275 275 276 275 271 268 265 261 255 251 247 241 237 236 236 235 234 234 232 230 230 230 228 225 224 224 224 224 222 218 219 221 222 221 221 222 220 219 222 216 199 200 207 204 197 193 197 205 208 211 216 219 220 223 227 225 210 200 202 201 199 197 195 199 205 213 220 224 233 242 237
314 316 318 319 319 319 317 314 310 306 301 296 292 286 280 275 274 275 275 276 279 278 275 271 266 259 253 249 243 238 234 234 234 232 231 230 229 227 228 227 224 222 222 222 223 219 214 216 220 220 219 218 219 218 218 219 210 200 203 206 204 197 191 196 203 203 209 219 219 217 222 228 228 217 210 210 203 196 195 193 197 204 211 215 220 227 234 237
323 323 323 321 319 318 315 313 310 306 300 296 291 286 281 276 274 274 275 277 278 277 276 274 271 266 259 253 246 242 237 234 234 232 228 228 227 224 222 221 220 220 219 219 221 218 213 214 215 216 216 215 216 215 214 214 207 202 203 203 204 199 192 197 201 200 210 220 217 214 220 228 230 223 219 218 206 194 193 190 193 203 210 215 220 225 227 228
327 324 322 319 317 315 312 310 307 304 301 297 293 288 285 281 278 277 277 278 277 276 274 272 270 267 263 258 251 247 242 237 234 233 228 225 223 221 217 216 217 219 219 217 218 218 214 213 212 212 213 213 214 212 210 209 206 204 204 203 204 200 196 199 201 203 212 219 213 209 218 229 231 225 225 225 210 197 193 187 190 200 207 214 216 219 221 220
326 323 320 317 314 312 310 309 308 307 304 301 297 293 289 286 282 278 276 276 277 277 274 270 267 262 260 259 256 253 249 242 235 233 229 223 221 219 217 217 217 219 220 216 217 217 216 214 211 210 211 212 213 211 209 208 206 205 206 206 205 202 201 202 203 205 213 217 212 207 218 232 234 225 224 228 216 205 197 186 187 195 201 205 205 208 211 213
324 320 318 315 313 312 311 310 309 309 307 306 303 299 295 292 289 283 279 275 275 276 273 268 263 257 254 256 257 256 254 247 236 231 228 224 221 219 218 218 217 218 218 215 215 216 216 214 211 211 211 210 212 212 210 210 209 207 208 211 210 209 209 209 209 210 214 218 214 210 221 234 236 224 219 225 222 216 206 190 185 193 196 197 196 198 201 207
322 319 318 316 315 314 313 312 312 313 312 310 307 304 301 298 294 290 285 279 274 271 269 264 260 255 252 251 253 254 254 250 239 228 225 224 222 220 218 216 215 215 215 213 213 215 216 213 210 212 213 211 212 212 209 210 210 207 208 212 213 213 215 215 214 215 218 221 218 218 228 237 238 227 216 219 222 222 216 201 192 194 196 197 195 192 195 202
321 320 320 318 317 316 315 316 317 317 316 313 310 307 303 300 296 293 287 282 276 269 264 261 258 256 253 250 250 250 251 252 244 230 222 221 221 219 218 216 213 212 211 210 211 214 215 211 206 210 212 210 211 213 211 211 210 208 208 211 213 212 215 216 216 217 220 224 225 225 232 238 239 231 216 216 220 221 221 212 201 199 199 201 200 193 194 200
320 322 322 319 318 317 317 318 317 317 315 312 308 305 303 299 295 291 285 280 276 271 265 260 258 256 254 251 249 247 247 250 248 236 223 219 218 217 217 216 213 211 210 209 210 212 215 212 206 208 209 207 208 211 212 212 211 209 209 211 212 210 212 215 217 219 221 227 229 227 231 237 238 232 219 218 220 217 219 217 210 207 205 203 200 194 195 200
321 323 322 319 316 314 315 318 318 318 315 311 310 308 305 301 295 290 285 279 274 270 266 262 258 256 253 251 247 245 245 246 248 241 226 220 218 215 215 216 213 211 209 209 210 212 215 212 206 207 208 206 205 207 210 210 208 209 210 211 212 211 211 211 214 217 221 227 229 226 229 235 235 230 222 221 220 217 221 221 217 215 213 208 198 193 196 200
322 324 322 318 314 313 316 320 320 319 316 315 315 312 309 304 298 292 286 281 273 267 263 260 258 255 253 250 246 242 242 242 246 244 230 222 220 216 213 214 213 211 209 208 209 211 214 212 205 205 207 206 205 205 206 206 206 206 207 208 210 213 214 215 215 217 220 226 229 227 229 232 233 229 225 224 221 218 222 227 225 222 221 218 208 200 202 206
323 324 322 317 314 314 318 320 320 319 319 319 317 313 310 304 299 294 289 282 274 266 262 259 256 253 251 250 247 243 241 240 242 243 232 223 221 217 214 213 212 211 210 208 208 209 212 211 205 203 206 206 205 205 204 205 205 206 207 206 206 208 210 214 217 218 220 225 229 229 229 231 232 230 229 226 223 220 223 228 229 229 228 224 217 211 206 207
323 323 321 317 315 315 318 320 321 321 321 321 318 315 311 306 302 299 293 284 274 267 263 260 255 250 247 248 248 245 243 240 239 241 235 226 222 218 215 213 212 212 211 209 208 208 211 211 204 202 205 205 205 205 203 204 205 206 209 208 206 207 206 208 214 214 217 223 227 228 229 227 227 229 231 230 228 227 230 235 235 235 236 228 219 216 207 202
322 322 320 315 314 315 317 319 320 321 323 323 321 320 316 312 306 299 292 286 281 277 273 265 253 247 245 246 247 246 244 241 238 240 238 227 222 219 216 213 212 212 211 209 208 207 209 210 204 200 204 206 204 204 202 203 205 206 209 207 205 208 207 207 212 212 213 220 224 228 229 224 219 226 233 237 236 232 235 239 237 234 236 229 215 212 209 199
323 323 320 316 314 315 316 319 320 323 326 326 325 325 323 316 306 294 288 290 290 291 289 273 254 246 244 243 245 244 242 241 239 241 242 232 223 218 215 214 212 212 212 210 209 208 208 210 205 199 202 204 202 203 202 202 205 207 209 207 204 207 209 211 214 213 215 219 221 227 229 217 204 215 224 228 228 222 222 229 230 226 228 226 210 202 206 201
326 325 321 317 315 315 317 321 323 326 330 329 328 328 325 316 303 290 287 289 289 290 290 278 257 247 243 242 245 245 243 242 241 242 247 241 228 218 214 214 213 212 212 211 210 209 207 208 204 197 199 200 197 199 200 200 204 207 208 207 205 205 208 211 213 213 216 218 218 225 224 202 191 205 211 214 214 211 212 217 220 221 222 218 203 193 200 205
329 327 323 318 316 316 319 323 325 329 332 332 331 331 325 312 298 283 275 276 278 280 281 276 261 250 245 245 247 248 248 248 247 247 250 252 240 223 213 211 212 212 213 213 212 210 207 208 204 196 196 197 193 194 198 199 203 205 206 206 206 204 206 209 211 213 215 214 215 219 211 187 190 198 196 203 207 206 211 215 216 218 217 211 198 189 194 202
330 328 324 321 319 319 322 325 327 331 334 334 333 333 326 308 292 277 267 266 267 269 270 269 260 251 248 249 250 251 254 255 256 258 258 261 257 233 215 209 208 210 213 214 213 211 208 207 205 197 195 196 193 194 198 200 203 205 205 205 205 205 205 208 211 214 214 212 214 215 203 186 192 191 182 192 203 206 213 217 215 214 212 206 197 189 190 196
333 331 327 324 324 324 325 328 330 334 336 336 336 335 327 308 289 277 267 265 266 267 266 260 250 247 251 254 254 255 258 262 266 270 270 268 268 250 223 209 203 205 211 214 214 213 208 207 206 199 194 196 193 193 198 201 202 204 206 205 204 205 206 207 210 212 212 211 211 210 201 193 195 191 180 185 197 203 210 215 217 215 209 202 195 188 188 191
336 335 329 326 328 327 328 332 334 336 338 338 339 338 326 307 289 278 271 268 267 265 259 250 244 248 255 256 257 258 260 265 271 277 280 275 272 263 233 211 201 200 206 211 214 214 209 207 207 200 194 195 194 192 196 200 201 203 205 205 204 204 207 207 208 210 210 210 208 207 203 198 195 191 183 182 187 191 199 210 216 214 205 195 190 186 188 191
339 339 333 329 330 330 331 335 337 338 340 341 342 339 326 306 291 283 277 269 266 262 252 246 248 253 259 260 262 264 263 267 273 279 282 278 273 268 240 215 203 197 200 207 213 214 210 208 208 202 194 194 193 191 195 199 201 202 204 205 204 204 206 207 207 209 209 209 207 206 206 197 189 186 184 183 180 177 189 204 207 203 197 191 188 186 188 193
342 343 338 333 333 334 335 337 339 339 341 344 345 341 327 307 295 292 287 274 269 266 260 258 258 259 264 267 267 269 270 273 277 279 280 277 273 268 245 220 205 195 195 202 210 213 211 209 210 203 194 193 192 190 194 198 200 202 204 205 205 205 205 205 205 207 208 208 205 204 203 191 182 182 185 184 178 173 186 200 202 201 197 189 187 186 186 194
345 347 344 338 336 337 337 339 341 341 343 346 348 344 330 312 302 301 300 290 279 273 269 270 270 269 271 273 272 275 277 279 281 281 281 279 275 267 247 222 206 195 191 197 206 212 211 210 211 204 193 191 190 188 192 197 200 203 205 205 205 205 204 204 203 203 204 203 202 201 196 183 179 183 185 184 180 178 188 199 203 205 195 180 180 184 185 194
347 348 348 343 340 340 339 340 343 344 345 348 352 349 339 323 310 303 303 297 286 281 277 272 271 273 274 276 278 279 280 281 282 282 283 284 281 271 247 221 207 196 188 192 202 209 210 209 211 204 193 190 189 186 189 196 200 203 205 205 204 204 203 202 202 202 200 199 200 199 192 182 182 185 183 184 184 184 192 200 204 205 193 178 179 186 190 195
Height
5872 5871 5870 5870 5869 5869 5869 5868 5868 5867 5866 5866 5865 5865 5864 5864 5864 5863 5863 5863 5863 5863 5863 5863 5863 5862 5862 5862 5863 5863 5863 5863 5863 5864 5864 5864 5865 5866 5866 5867 5868 5868 5868 5870 5872 5872 5873 5874 5875 5876 5878 5879 5880 5881 5881 5882 5882 5883 5883 5885 5887 5888 5889 5891 5892 5892 5892 5893 5894 5894 5894 5895 5895 5896 5896 5896 5896 5894 5895 5898 5896 5896 5897 5898 5899 5899 5899 5898
5870 5869 5868 5868 5867 5867 5866 5866 5866 5865 5865 5864 5863 5863 5863 5863 5862 5862 5861 5861 5861 5862 5862 5861 5861 5861 5860 5860 5861 5862 5862 5862 5862 5863 5863 5863 5863 5864 5865 5865 5866 5867 5867 5869 5870 5871 5872 5873 5874 5875 5876 5877 5878 5880 5881 5881 5881 5882 5882 5883 5885 5887 5889 5890 5891 5891 5892 5892 5893 5893 5894 5895 5895 5895 5895 5895 5895 5894 5896 5898 5896 5896 5897 5898 5898 5898 5899 5899
5867 5867 5866 5865 5865 5864 5864 5863 5863 5863 5862 5862 5861 5861 5861 5861 5861 5860 5860 5860 5860 5860 5860 5860 5860 5859 5859 5859 5859 5860 5860 5860 5861 5862 5861 5861 5862 5863 5864 5864 5865 5865 5865 5867 5868 5868 5869 5870 5871 5873 5874 5875 5877 5878 5879 5880 5880 5881 5882 5882 5883 5886 5888 5889 5890 5890 5891 5892 5892 5892 5893 5894 5894 5895 5894 5895 5896 5896 5897 5898 5896 5896 5896 5897 5898 5898 5898 5899
5865 5864 5863 5863 5862 5861 5861 5861 5860 5860 5860 5859 5859 5859 5859 5859 5859 5859 5858 5858 5858 5858 5858 5858 5858 5858 5857 5857 5857 5857 5858 5858 5860 5861 5859 5859 5860 5861 5863 5863 5863 5864 5864 5865 5866 5866 5867 5868 5870 5871 5872 5873 5875 5877 5878 5879 5880 5880 5881 5881 5881 5884 5887 5888 5889 5889 5890 5891 5892 5892 5893 5894 5895 5895 5895 5895 5896 5897 5897 5897 5895 5895 5896 5896 5897 5897 5898 5899
5862 5861 5860 5860 5859 5858 5858 5858 5857 5857 5857 5856 5856 5856 5856 5856 5856 5856 5856 5856 5856 5856 5856 5856 5856 5856 5856 5856 5855 5855 5855 5856 5858 5859 5858 5857 5859 5860 5861 5862 5862 5863 5863 5863 5864 5865 5867 5869 5870 5870 5871 5873 5874 5876 5878 5878 5879 5879 5880 5880 5880 5882 5885 5887 5889 5889 5889 5890 5891 5892 5893 5894 5895 5895 5895 5895 5896 5897 5896 5895 5894 5894 5895 5896 5896 5897 5898 5899
5859 5858 5857 5857 5856 5855 5855 5855 5854 5854 5854 5853 5853 5853 5853 5853 5853 5853 5853 5854 5854 5854 5854 5854 5854 5854 5854 5854 5854 5853 5853 5854 5856 5857 5856 5856 5857 5859 5860 5861 5860 5861 5862 5863 5863 5865 5867 5868 5869 5870 5872 5872 5875 5876 5876 5877 5878 5879 5880 5880 5880 5881 5883 5885 5887 5888 5888 5889 5889 5890 5892 5893 5894 5895 5895 5895 5895 5895 5894 5894 5894 5894 5894 5895 5896 5896 5897 5898
5856 5855 5854 5854 5853 5852 5852 5851 5851 5851 5850 5850 5850 5850 5850 5850 5850 5850 5850 5851 5851 5851 5851 5852 5852 5852 5852 5852 5852 5851 5851 5852 5854 5855 5854 5854 5855 5857 5858 5859 5859 5860 5861 5861 5862 5864 5866 5867 5869 5870 5870 5872 5874 5875 5875 5876 5877 5878 5879 5879 5880 5881 5882 5883 5885 5887 5887 5888 5888 5889 5890 5891 5893 5894 5893 5893 5893 5893 5892 5893 5893 5894 5894 5895 5896 5896 5897 5898
5853 5852 5851 5850 5850 5849 5848 5848 5847 5847 5847 5847 5846 5846 5846 5846 5846 5846 5847 5847 5847 5848 5848 5849 5849 5849 5849 5849 5849 5849 5849 5850 5851 5852 5852 5852 5853 5854 5855 5857 5857 5858 5858 5859 5860 5862 5864 5866 5867 5868 5869 5871 5872 5873 5873 5874 5876 5877 5878 5879 5879 5879 5880 5881 5883 5885 5886 5886 5887 5888 5888 5889 5890 5891 5891 5891 5891 5891 5892 5892 5893 5894 5895 5895 5896 5896 5897 5898
5850 5849 5848 5847 5846 5846 5845 5844 5844 5843 5843 5843 5843 5843 5842 5843 5842 5843 5843 5843 5843 5844 5845 5846 5846 5846 5847 5847 5846 5846 5847 5848 5849 5849 5849 5850 5851 5852 5853 5854 5855 5856 5856 5857 5858 5860 5862 5864 5865 5866 5867 5868 5869 5870 5871 5874 5876 5877 5877 5877 5878 5877 5878 5879 5880 5882 5884 5886 5886 5887 5887 5887 5888 5888 5889 5890 5890 5890 5892 5893 5893 5895 5895 5895 5896 5896 5897 5897
5847 5846 5844 5844 5843 5842 5842 5841 5840 5840 5839 5839 5839 5839 5839 5839 5839 5839 5839 5839 5839 5840 5841 5842 5843 5844 5844 5844 5844 5843 5845 5846 5846 5847 5847 5849 5849 5850 5850 5852 5853 5854 5854 5855 5856 5859 5861 5862 5862 5862 5862 5864 5866 5867 5870 5874 5874 5873 5873 5874 5874 5875 5876 5877 5878 5881 5882 5884 5885 5886 5886 5887 5888 5888 5888 5889 5890 5891 5892 5893 5894 5895 5895 5895 5895 5896 5896 5897
5844 5843 5842 5841 5840 5839 5838 5837 5836 5836 5836 5835 5835 5835 5835 5835 5835 5835 5835 5835 5835 5836 5836 5837 5839 5840 5840 5841 5840 5839 5842 5843 5843 5845 5845 5846 5847 5847 5847 5849 5850 5851 5852 5853 5854 5856 5857 5857 5857 5857 5859 5861 5863 5865 5869 5872 5871 5870 5871 5872 5872 5873 5874 5875 5877 5880 5881 5882 5883 5884 5885 5886 5887 5888 5889 5889 5890 5891 5892 5893 5894 5895 5894 5894 5895 5896 5896 5897
5841 5840 5839 5838 5837 5836 5835 5834 5833 5832 5832 5831 5831 5831 5831 5831 5831 5831 5831 5831 5831 5832 5832 5833 5834 5835 5837 5837 5835 5836 5839 5840 5841 5842 5843 5842 5843 5844 5844 5845 5846 5847 5849 5850 5851 5852 5852 5853 5853 5856 5859 5859 5860 5863 5867 5868 5867 5868 5868 5869 5871 5871 5873 5875 5877 5878 5879 5880 5882 5883 5884 5886 5887 5888 5889 5889 5890 5891 5892 5893 5895 5895 5894 5894 5895 5896 5896 5897
5838 5837 5836 5835 5834 5833 5832 5831 5830 5829 5829 5828 5827 5827 5827 5827 5827 5827 5827 5826 5826 5827 5827 5828 5830 5831 5833 5832 5830 5832 5835 5837 5839 5839 5839 5838 5839 5840 5841 5842 5843 5844 5846 5847 5847 5848 5849 5849 5852 5855 5856 5856 5859 5861 5863 5863 5863 5864 5865 5868 5869 5869 5872 5875 5876 5877 5877 5879 5881 5883 5884 5885 5886 5887 5888 5889 5890 5891 5892 5893 5895 5895 5894 5894 5895 5895 5896 5897
5834 5833 5832 5831 5830 5829 5828 5827 5826 5825 5825 5824 5823 5823 5823 5823 5823 5823 5822 5822 5822 5822 5823 5824 5825 5826 5829 5827 5825 5828 5832 5833 5834 5834 5834 5834 5835 5836 5838 5839 5840 5842 5842 5843 5844 5845 5846 5847 5849 5851 5851 5854 5857 5858 5859 5860 5860 5861 5862 5865 5866 5868 5871 5873 5874 5875 5876 5878 5880 5881 5883 5884 5885 5887 5888 5888 5889 5891 5891 5893 5894 5895 5894 5894 5894 5895 5896 5896
5830 5828 5827 5826 5826 5825 5824 5823 5822 5821 5821 5820 5819 5819 5820 5819 5819 5819 5818 5817 5817 5817 5818 5819 5820 5822 5824 5822 5821 5823 5827 5828 5828 5829 5831 5831 5832 5833 5834 5835 5836 5838 5838 5839 5841 5842 5842 5844 5846 5848 5850 5852 5852 5852 5856 5857 5858 5860 5860 5862 5865 5867 5870 5872 5872 5874 5876 5877 5878 5880 5882 5883 5884 5886 5887 5887 5888 5890 5891 5892 5894 5894 5893 5893 5893 5894 5895 5896
5826 5824 5823 5822 5821 5820 5820 5819 5818 5817 5816 5815 5814 5815 5815 5815 5815 5814 5812 5811 5811 5813 5814 5815 5816 5817 5819 5819 5817 5817 5819 5823 5824 5825 5828 5828 5828 5829 5830 5831 5832 5834 5835 5836 5837 5838 5839 5842 5844 5846 5847 5847 5848 5850 5853 5853 5855 5857 5859 5862 5865 5866 5869 5870 5871 5873 5875 5875 5876 5879 5881 5882 5882 5885 5886 5887 5887 5889 5890 5891 5892 5893 5892 5892 5893 5894 5894 5895
5822 5820 5818 5817 5816 5816 5815 5814 5813 5812 5811 5810 5809 5810 5811 5811 5811 5810 5807 5805 5806 5807 5809 5810 5812 5813 5813 5814 5813 5812 5813 5817 5820 5822 5824 5824 5824 5825 5826 5829 5829 5830 5831 5831 5832 5834 5836 5840 5841 5842 5843 5844 5846 5848 5849 5850 5853 5855 5858 5862 5864 5866 5868 5868 5870 5872 5873 5873 5875 5878 5880 5881 5881 5883 5885 5885 5886 5887 5889 5890 5891 5892 5892 5892 5893 5893 5894 5894
5817 5815 5814 5812 5811 5811 5809 5809 5808 5807 5806 5805 5805 5805 5805 5805 5806 5804 5800 5799 5801 5802 5803 5805 5808 5809 5808 5808 5808 5808 5808 5811 5816 5819 5821 5821 5820 5821 5823 5825 5824 5824 5825 5826 5829 5831 5833 5836 5838 5838 5839 5841 5843 5845 5848 5851 5854 5855 5857 5861 5863 5865 5867 5868 5870 5871 5871 5871 5873 5876 5878 5879 5880 5882 5884 5884 5885 5886 5888 5889 5890 5891 5892 5892 5892 5893 5894 5894
5813 5811 5809 5806 5806 5805 5804 5803 5803 5802 5801 5800 5800 5800 5801 5801 5801 5799 5793 5792 5796 5795 5798 5800 5802 5803 5803 5804 5804 5805 5807 5807 5810 5814 5816 5816 5815 5816 5818 5818 5819 5820 5821 5823 5826 5828 5830 5832 5832 5833 5837 5841 5844 5846 5849 5852 5853 5853 5855 5858 5860 5863 5865 5868 5869 5869 5869 5869 5871 5874 5877 5877 5878 5880 5882 5883 5884 5885 5887 5887 5889 5891 5892 5892 5892 5892 5893 5893
5808 5805 5803 5801 5800 5800 5798 5796 5796 5796 5795 5794 5795 5794 5795 5796 5796 5794 5786 5785 5790 5790 5792 5794 5795 5796 5797 5800 5800 5801 5804 5804 5804 5808 5810 5811 5810 5811 5811 5811 5813 5815 5817 5822 5824 5824 5826 5826 5827 5834 5840 5843 5843 5844 5846 5848 5849 5850 5851 5854 5857 5859 5863 5866 5867 5868 5867 5866 5869 5872 5874 5875 5876 5878 5880 5881 5882 5884 5885 5887 5889 5891 5891 5892 5891 5892 5892 5893
5802 5800 5798 5795 5794 5793 5791 5790 5789 5789 5788 5787 5788 5788 5789 5790 5790 5789 5781 5777 5781 5784 5786 5787 5788 5789 5791 5794 5796 5797 5799 5800 5800 5801 5803 5805 5804 5805 5806 5806 5808 5811 5816 5819 5819 5819 5818 5820 5827 5836 5839 5838 5838 5840 5841 5843 5845 5847 5848 5851 5854 5856 5861 5863 5863 5863 5863 5864 5867 5868 5869 5871 5874 5876 5877 5879 5881 5883 5884 5886 5888 5889 5890 5891 5891 5891 5892 5892
5795 5793 5792 5788 5786 5786 5784 5782 5781 5781 5780 5779 5780 5780 5780 5782 5782 5782 5779 5773 5772 5776 5778 5778 5780 5782 5784 5788 5791 5792 5793 5795 5795 5794 5795 5797 5797 5800 5801 5801 5804 5809 5813 5812 5812 5813 5813 5819 5830 5834 5833 5832 5834 5835 5837 5840 5841 5843 5844 5847 5851 5855 5858 5859 5859 5860 5860 5862 5865 5865 5866 5869 5872 5874 5875 5877 5879 5881 5883 5884 5886 5887 5888 5889 5890 5890 5891 5891
5788 5786 5785 5781 5778 5778 5776 5774 5773 5772 5772 5771 5771 5771 5771 5772 5772 5772 5772 5768 5767 5770 5770 5769 5771 5773 5778 5781 5784 5787 5787 5789 5789 5786 5787 5789 5791 5794 5794 5796 5800 5804 5807 5806 5807 5809 5812 5823 5831 5828 5827 5828 5830 5832 5834 5836 5837 5838 5840 5844 5849 5853 5855 5856 5858 5858 5858 5861 5862 5862 5864 5866 5869 5870 5871 5874 5877 5879 5880 5881 5883 5884 5886 5887 5888 5888 5889 5890
5781 5779 5777 5774 5771 5769 5768 5766 5765 5763 5763 5763 5762 5762 5761 5762 5762 5761 5762 5760 5760 5762 5762 5762 5763 5766 5770 5772 5776 5780 5779 5782 5781 5776 5779 5782 5785 5787 5789 5792 5794 5796 5800 5802 5804 5805 5811 5822 5824 5821 5822 5825 5826 5828 5830 5831 5833 5835 5837 5842 5848 5851 5853 5856 5856 5855 5856 5859 5860 5859 5859 5860 5863 5865 5869 5873 5874 5876 5878 5878 5880 5883 5885 5885 5887 5888 5888 5889
5775 5771 5770 5768 5764 5762 5761 5759 5757 5755 5755 5755 5754 5753 5753 5753 5753 5753 5753 5752 5751 5753 5754 5755 5755 5758 5762 5763 5767 5771 5771 5774 5770 5767 5772 5775 5777 5780 5783 5786 5787 5790 5794 5797 5798 5800 5808 5817 5816 5815 5818 5821 5822 5824 5826 5829 5832 5833 5835 5841 5847 5849 5851 5853 5852 5851 5853 5856 5857 5857 5855 5856 5858 5862 5867 5870 5871 5873 5875 5876 5879 5881 5883 5883 5885 5887 5887 5887
5769 5765 5763 5762 5758 5756 5755 5753 5751 5749 5748 5747 5746 5745 5745 5745 5745 5744 5745 5745 5744 5744 5745 5747 5747 5751 5754 5754 5758 5761 5763 5764 5760 5761 5767 5769 5771 5775 5778 5781 5783 5786 5789 5791 5792 5795 5804 5810 5810 5810 5813 5815 5816 5819 5823 5826 5828 5831 5836 5842 5845 5846 5848 5848 5847 5848 5849 5853 5855 5854 5852 5854 5856 5859 5864 5866 5868 5871 5873 5874 5877 5879 5880 5882 5884 5886 5887 5887
5764 5760 5757 5756 5753 5751 5750 5748 5746 5745 5744 5742 5740 5740 5739 5739 5739 5738 5738 5738 5738 5738 5737 5739 5741 5743 5745 5746 5749 5753 5754 5755 5754 5756 5761 5763 5766 5769 5772 5775 5777 5780 5783 5783 5782 5788 5798 5803 5802 5804 5808 5809 5811 5815 5821 5823 5826 5832 5836 5839 5839 5842 5845 5845 5845 5845 5847 5852 5852 5849 5850 5851 5853 5857 5861 5863 5865 5867 5869 5872 5875 5877 5878 5880 5882 5884 5885 5886
5758 5755 5752 5750 5748 5746 5746 5745 5743 5741 5741 5739 5738 5736 5734 5734 5734 5733 5733 5731 5731 5732 5732 5732 5733 5735 5737 5737 5741 5745 5746 5748 5748 5748 5752 5756 5759 5761 5765 5769 5770 5772 5775 5774 5777 5786 5795 5798 5799 5802 5804 5806 5810 5816 5820 5820 5824 5831 5833 5832 5834 5839 5842 5843 5842 5843 5847 5848 5845 5846 5848 5847 5849 5855 5858 5858 5860 5863 5866 5870 5873 5875 5877 5879 5881 5882 5884 5884
5752 5751 5748 5746 5744 5742 5742 5741 5740 5739 5738 5736 5735 5733 5732 5731 5730 5729 5728 5726 5725 5726 5727 5727 5727 5728 5729 5729 5733 5737 5738 5739 5739 5740 5745 5748 5750 5754 5759 5763 5764 5765 5767 5770 5774 5782 5790 5793 5794 5796 5799 5804 5809 5814 5815 5815 5821 5827 5827 5827 5831 5834 5837 5838 5837 5840 5844 5840 5838 5843 5845 5844 5847 5851 5852 5851 5855 5859 5864 5868 5871 5874 5876 5878 5879 5881 5882 5882
5749 5747 5745 5743 5742 5740 5738 5737 5736 5735 5734 5733 5731 5730 5728 5727 5726 5725 5724 5722 5721 5721 5722 5722 5721 5721 5722 5724 5726 5728 5729 5730 5731 5735 5737 5739 5743 5748 5753 5755 5755 5756 5761 5765 5767 5774 5782 5784 5785 5788 5794 5801 5805 5807 5809 5812 5818 5822 5821 5823 5825 5828 5832 5832 5832 5837 5837 5829 5833 5842 5842 5842 5843 5846 5847 5849 5854 5859 5863 5866 5869 5872 5874 5875 5877 5878 5879 5880
5746 5744 5743 5741 5739 5737 5735 5733 5731 5730 5729 5729 5727 5726 5724 5723 5722 5721 5719 5718 5717 5716 5718 5717 5716 5715 5715 5719 5720 5719 5720 5722 5725 5727 5729 5732 5736 5740 5744 5744 5743 5746 5753 5757 5760 5767 5772 5773 5776 5782 5788 5793 5795 5798 5803 5807 5812 5814 5815 5817 5819 5822 5826 5826 5827 5831 5825 5821 5832 5841 5841 5838 5837 5842 5847 5850 5855 5859 5860 5864 5867 5869 5872 5874 5875 5876 5877 5879
5743 5741 5739 5737 5735 5733 5731 5729 5727 5725 5723 5723 5722 5720 5719 5717 5717 5716 5715 5713 5710 5710 5712 5712 5711 5710 5709 5712 5714 5714 5713 5715 5718 5720 5721 5724 5727 5731 5732 5731 5734 5740 5745 5750 5754 5759 5763 5765 5771 5776 5780 5783 5786 5791 5796 5800 5804 5807 5809 5811 5812 5816 5818 5817 5819 5820 5816 5818 5831 5839 5838 5833 5832 5840 5847 5849 5854 5856 5857 5861 5863 5867 5870 5872 5874 5875 5876 5877
5740 5738 5736 5734 5731 5729 5726 5724 5722 5720 5718 5717 5716 5715 5713 5711 5711 5710 5710 5708 5704 5704 5705 5705 5704 5704 5704 5706 5708 5709 5707 5707 5712 5713 5713 5715 5717 5721 5722 5722 5728 5733 5738 5745 5748 5751 5755 5759 5763 5767 5772 5777 5781 5786 5790 5793 5798 5801 5803 5805 5807 5810 5810 5809 5812 5814 5813 5818 5829 5837 5835 5828 5829 5839 5843 5846 5853 5855 5855 5858 5860 5864 5867 5869 5871 5873 5874 5875
5737 5735 5732 5729 5727 5724 5721 5719 5717 5715 5713 5712 5710 5709 5708 5706 5705 5705 5704 5702 5699 5698 5698 5698 5697 5697 5699 5700 5701 5703 5702 5702 5705 5706 5706 5708 5710 5713 5715 5718 5722 5725 5732 5738 5738 5741 5746 5751 5759 5765 5770 5774 5777 5782 5788 5792 5796 5799 5803 5805 5806 5808 5808 5809 5811 5813 5814 5818 5828 5834 5829 5822 5827 5837 5842 5845 5850 5852 5853 5855 5857 5861 5864 5866 5868 5869 5871 5872
5734 5732 5728 5724 5721 5719 5716 5714 5712 5710 5708 5707 5705 5704 5702 5701 5700 5699 5698 5696 5694 5693 5692 5691 5691 5691 5693 5694 5694 5697 5697 5696 5698 5700 5701 5702 5703 5706 5708 5712 5714 5718 5726 5729 5729 5733 5738 5747 5759 5765 5768 5771 5774 5780 5786 5788 5791 5796 5800 5801 5802 5807 5809 5811 5813 5814 5816 5819 5825 5826 5821 5820 5828 5836 5840 5842 5844 5848 5850 5852 5854 5857 5860 5862 5863 5865 5867 5869
5730 5728 5725 5720 5717 5714 5711 5709 5707 5705 5703 5702 5700 5699 5697 5696 5694 5693 5692 5690 5688 5687 5686 5685 5684 5684 5686 5687 5688 5691 5691 5690 5692 5694 5695 5696 5697 5699 5701 5704 5707 5711 5716 5718 5721 5727 5732 5742 5752 5754 5758 5766 5773 5779 5781 5782 5787 5791 5793 5794 5800 5807 5808 5810 5812 5815 5816 5815 5818 5820 5818 5821 5827 5832 5837 5839 5840 5844 5847 5849 5851 5854 5857 5859 5861 5863 5865 5866
5726 5724 5721 5716 5713 5709 5706 5704 5702 5701 5699 5697 5695 5694 5692 5690 5689 5687 5685 5684 5682 5681 5680 5679 5677 5678 5679 5680 5682 5684 5685 5685 5686 5688 5689 5690 5691 5692 5693 5696 5700 5703 5707 5709 5714 5719 5725 5737 5745 5746 5752 5762 5769 5773 5775 5778 5783 5785 5789 5795 5800 5803 5803 5806 5810 5811 5811 5810 5813 5817 5817 5819 5824 5828 5833 5836 5838 5840 5843 5846 5849 5851 5854 5856 5859 5862 5863 5865
5722 5719 5716 5712 5708 5705 5702 5700 5697 5696 5694 5693 5691 5689 5686 5683 5681 5680 5678 5677 5675 5673 5672 5672 5671 5671 5671 5672 5675 5677 5678 5679 5680 5681 5683 5684 5684 5685 5687 5689 5693 5696 5700 5703 5708 5712 5720 5731 5740 5743 5749 5755 5759 5762 5766 5771 5777 5782 5789 5794 5795 5795 5798 5800 5802 5803 5804 5804 5808 5813 5814 5815 5820 5825 5830 5834 5837 5839 5841 5844 5847 5850 5853 5855 5858 5861 5862 5863
5717 5715 5711 5707 5703 5700 5698 5695 5693 5691 5689 5687 5685 5682 5679 5675 5672 5672 5670 5667 5665 5664 5664 5664 5663 5663 5663 5664 5667 5670 5672 5673 5674 5675 5677 5677 5677 5679 5681 5683 5686 5690 5693 5697 5701 5706 5714 5724 5732 5736 5740 5746 5749 5752 5757 5766 5773 5779 5783 5786 5788 5793 5796 5798 5798 5800 5802 5802 5805 5811 5811 5812 5817 5823 5827 5831 5835 5839 5840 5842 5845 5848 5852 5855 5857 5859 5861 5862
5713 5710 5707 5703 5699 5696 5694 5691 5688 5686 5684 5682 5680 5676 5672 5667 5663 5661 5659 5655 5654 5654 5654 5655 5655 5655 5655 5657 5659 5662 5664 5667 5668 5668 5669 5670 5671 5674 5676 5677 5680 5684 5687 5691 5695 5701 5708 5716 5724 5730 5733 5738 5742 5747 5756 5765 5770 5773 5774 5777 5781 5786 5790 5794 5796 5798 5801 5801 5804 5808 5808 5810 5817 5822 5825 5829 5833 5836 5838 5840 5843 5846 5850 5853 5855 5857 5860 5862
5708 5706 5703 5699 5695 5692 5689 5686 5683 5681 5678 5676 5673 5669 5664 5659 5654 5650 5647 5644 5643 5644 5645 5647 5647 5647 5648 5650 5652 5654 5657 5659 5660 5661 5662 5664 5665 5668 5670 5672 5675 5678 5681 5686 5691 5696 5701 5708 5717 5724 5727 5732 5738 5748 5757 5762 5764 5768 5770 5773 5778 5780 5784 5787 5788 5792 5797 5799 5801 5804 5804 5808 5816 5820 5823 5826 5830 5833 5836 5838 5841 5844 5846 5850 5852 5855 5858 5860
5703 5702 5699 5696 5692 5688 5684 5681 5679 5676 5672 5668 5666 5662 5656 5651 5646 5642 5638 5636 5636 5637 5639 5640 5640 5640 5642 5644 5646 5648 5650 5652 5653 5655 5656 5657 5659 5661 5664 5667 5671 5674 5677 5681 5685 5689 5694 5701 5711 5718 5722 5729 5738 5746 5752 5756 5759 5762 5765 5769 5775 5777 5779 5782 5785 5790 5794 5795 5798 5801 5802 5807 5816 5819 5820 5823 5827 5830 5833 5834 5837 5840 5843 5846 5849 5852 5854 5857
5699 5696 5694 5691 5688 5685 5681 5677 5674 5670 5667 5662 5658 5654 5649 5643 5639 5635 5632 5632 5632 5633 5634 5635 5634 5635 5637 5639 5640 5642 5644 5645 5647 5648 5649 5651 5652 5655 5660 5663 5667 5669 5672 5676 5680 5684 5690 5697 5706 5715 5721 5729 5738 5743 5748 5753 5756 5757 5759 5764 5768 5772 5777 5782 5786 5790 5792 5793 5798 5800 5802 5808 5816 5817 5818 5821 5823 5826 5828 5830 5832 5835 5838 5842 5845 5848 5850 5853
5695 5692 5688 5686 5684 5681 5678 5674 5669 5664 5661 5656 5651 5646 5642 5637 5633 5630 5629 5629 5629 5630 5630 5631 5630 5630 5632 5634 5635 5636 5638 5639 5640 5641 5643 5645 5646 5650 5655 5659 5662 5666 5668 5672 5675 5679 5685 5691 5700 5711 5718 5724 5733 5738 5742 5746 5746 5747 5753 5759 5763 5769 5776 5780 5783 5787 5789 5791 5796 5798 5801 5809 5813 5814 5816 5819 5820 5823 5825 5826 5829 5831 5833 5837 5841 5844 5846 5849
5692 5688 5684 5681 5679 5677 5674 5670 5665 5660 5655 5651 5645 5640 5635 5631 5628 5627 5626 5626 5626 5626 5627 5627 5627 5627 5628 5630 5631 5632 5633 5633 5634 5636 5637 5638 5639 5643 5649 5654 5658 5661 5664 5667 5670 5674 5680 5685 5693 5703 5709 5715 5722 5728 5732 5735 5737 5742 5749 5755 5761 5766 5770 5774 5778 5780 5783 5788 5793 5794 5800 5808 5810 5810 5814 5816 5818 5821 5822 5823 5826 5828 5830 5833 5838 5840 5842 5846
5689 5685 5680 5677 5675 5672 5669 5665 5661 5657 5652 5646 5641 5636 5632 5627 5624 5624 5623 5622 5623 5623 5623 5624 5624 5624 5625 5626 5627 5628 5629 5629 5629 5630 5631 5632 5633 5636 5641 5646 5651 5656 5659 5662 5666 5670 5676 5681 5687 5696 5703 5709 5716 5721 5725 5728 5733 5741 5747 5752 5758 5762 5765 5769 5772 5774 5779 5786 5789 5792 5799 5805 5805 5807 5811 5814 5817 5819 5820 5822 5824 5826 5828 5831 5835 5838 5840 5843
5685 5682 5677 5673 5670 5667 5664 5660 5656 5652 5648 5643 5637 5633 5628 5624 5622 5620 5620 5619 5619 5619 5620 5620 5620 5621 5622 5622 5623 5624 5625 5625 5625 5625 5624 5625 5626 5628 5632 5637 5643 5650 5654 5658 5662 5666 5672 5677 5683 5691 5699 5704 5710 5715 5720 5725 5732 5739 5744 5749 5754 5758 5760 5762 5765 5770 5778 5782 5785 5791 5798 5801 5802 5805 5809 5812 5815 5817 5819 5822 5824 5825 5828 5830 5833 5835 5837 5840
5682 5678 5673 5669 5667 5663 5660 5656 5652 5648 5643 5639 5634 5629 5624 5621 5619 5618 5617 5616 5615 5616 5617 5617 5618 5618 5619 5619 5620 5621 5622 5622 5622 5621 5619 5619 5620 5621 5625 5630 5636 5643 5649 5653 5657 5662 5668 5674 5679 5686 5694 5700 5706 5713 5718 5723 5730 5736 5740 5745 5749 5753 5755 5757 5761 5768 5775 5778 5783 5790 5795 5798 5801 5804 5807 5811 5813 5815 5818 5821 5823 5826 5828 5830 5831 5833 5835 5838
5679 5675 5671 5666 5663 5660 5656 5652 5648 5644 5639 5635 5630 5626 5622 5619 5617 5616 5614 5614 5613 5613 5614 5615 5616 5616 5616 5616 5616 5617 5618 5618 5619 5618 5616 5615 5615 5615 5618 5623 5630 5637 5643 5648 5652 5657 5665 5671 5675 5682 5691 5698 5705 5712 5715 5720 5726 5731 5735 5739 5742 5747 5751 5755 5760 5766 5772 5776 5783 5789 5792 5796 5800 5802 5806 5809 5810 5812 5815 5819 5822 5825 5827 5829 5830 5832 5834 5836
5676 5673 5669 5664 5660 5657 5653 5649 5645 5640 5636 5632 5627 5623 5619 5617 5616 5614 5613 5612 5612 5611 5612 5613 5614 5614 5614 5613 5614 5614 5614 5614 5615 5614 5612 5611 5611 5610 5612 5617 5624 5631 5637 5643 5647 5653 5662 5668 5671 5680 5690 5697 5703 5708 5712 5718 5723 5727 5730 5734 5739 5744 5750 5755 5760 5765 5769 5775 5780 5785 5788 5793 5797 5800 5803 5805 5806 5809 5813 5817 5820 5823 5825 5827 5829 5830 5833 5834
5674 5671 5667 5662 5658 5654 5650 5647 5643 5638 5633 5629 5625 5620 5617 5615 5614 5613 5611 5611 5611 5610 5610 5611 5611 5612 5612 5611 5611 5611 5611 5611 5610 5611 5609 5607 5607 5606 5606 5611 5618 5626 5632 5638 5643 5650 5658 5664 5668 5678 5689 5694 5699 5705 5711 5716 5720 5723 5726 5731 5737 5742 5748 5753 5758 5761 5766 5771 5777 5781 5785 5789 5793 5796 5799 5802 5804 5807 5810 5814 5818 5820 5823 5825 5827 5829 5831 5833
5672 5669 5665 5661 5656 5652 5648 5644 5641 5636 5631 5627 5623 5618 5615 5613 5612 5611 5610 5609 5609 5609 5609 5609 5610 5610 5610 5610 5609 5609 5609 5608 5607 5607 5606 5604 5602 5601 5601 5606 5614 5622 5628 5633 5639 5647 5655 5660 5666 5676 5686 5691 5696 5702 5709 5713 5716 5719 5722 5728 5734 5740 5745 5751 5755 5758 5763 5768 5773 5777 5782 5786 5789 5792 5796 5799 5801 5804 5808 5811 5815 5817 5820 5823 5825 5828 5830 5832